LFML - LFMU

Guest
Details From LFML - Marseille Provence
To LFMU - Beziers Vias
Flight Number -
Tags generated
Created
Modified
Stats Distance 82 nm / 151 km
Max Altitude 5,800 ft / 1,768 m
Waypoints 3
Social Downloads 0
Likes 0
Share VATSIM

Download

Looking for another format? Having issues loading an existing format? Contact us
Advertisement - Login to hide

Notes

Basic altitude profile: - Ascent Rate: 1000ft/min - Ascent Speed: 120kts - Cruise Altitude: 4500ft - Cruise Speed: 180kts - Descent Rate: 1500ft/min - Descent Speed: 160kts Options: - Use NATs: yes - Use PACOTS: yes - Use low airways: yes - Use high airways: yes

Route

LFML RHONE LFMU

ID Type Via Altitude Latitude Longitude Leg Dist Tot Dist Heading (true) Name
O LFML APT - 0 ft / 0 m 43.43589˚ 5.21328˚ - 0 nm - Marseille Provence
RHONE FIX - 5,800 ft / 1,768 m 43.38603˚ 4.84456˚ 16 nm 16 nm 260° / 259° -
O LFMU APT - 0 ft / 0 m 43.32342˚ 3.35357˚ 65 nm 81 nm 267° / 266° Beziers Vias

Altitude Profile

LFML

Details ICAO LFML (MRS)
Name Marseille Provence
Region France
Timezone Europe/Paris (UTC+1.0)
Stats Elevation 74 ft / 23 m (AMSL)
Location 43.435892° 5.213282°
Runways 2
Magnetic Variation 1.448° E

METAR

LFML 161900Z AUTO 33018KT CAVOK 02/M05 Q1014 NOSIG

Decode

TAF

TAF AMD LFML 161517Z 1615/1721 33025G35KT CAVOK PROB40 TEMPO 1615/1618 35030G40KT BECMG 1619/1621 35020KT TEMPO 1621/1706 35015G25KT BECMG 1707/1709 36015KT TX06/1615Z TNM02/1706Z

Decode

Departure Runways

ID Width Length Bearing (true) Bearing (mag) Surface Threshold Offset Overrun Length
13L 148 ft / 45 m 11,478 ft / 3,499 m 133.99° 132.54° Asphalt 1,115 ft / 340 m 0 ft / 0 m
13R 148 ft / 45 m 7,981 ft / 2,433 m 134.90° 133.45° Asphalt 0 ft / 0 m 0 ft / 0 m
31L 148 ft / 45 m 7,981 ft / 2,433 m 314.91° 313.46° Asphalt 344 ft / 105 m 0 ft / 0 m
31R 148 ft / 45 m 11,478 ft / 3,499 m 314.01° 312.56° Asphalt 2,165 ft / 660 m 0 ft / 0 m

LFMU

Details ICAO LFMU (BZR)
Name Beziers Vias
Region France
Timezone Europe/Paris (UTC+1.0)
Stats Elevation 54 ft / 16 m (AMSL)
Location 43.323422° 3.353573°
Runways 1
Magnetic Variation 0.994° E

METAR

LFMU 161900Z AUTO 33016G27KT CAVOK 04/M10 Q1019 NOSIG

Decode

TAF

TAF LFMU 161400Z 1615/1715 34019KT CAVOK TEMPO 1615/1706 34020G30KT BECMG 1706/1708 32010KT

Decode

Destination Runways

ID Width Length Bearing (true) Bearing (mag) Surface Threshold Offset Overrun Length
10 115 ft / 35 m 5,955 ft / 1,815 m 94.20° 93.21° Asphalt 459 ft / 140 m 0 ft / 0 m
28 115 ft / 35 m 5,955 ft / 1,815 m 274.22° 273.23° Asphalt 0 ft / 0 m 0 ft / 0 m

Approach Navaids

Runway Type Ident Frequency Range Bearing (true) Bearing (mag) Slope Elevation
10 Localiser ZR 109.35 MHz 18 nm / 33 km 94.52° 93.53° - 50 ft / 15 m (AMSL)
10 Glidescope ZR 109.35 MHz 10 nm / 19 km 94.21° 93.22° 3.00° 92 ft / 28 m (AMSL)
10 DME ZR 109.35 MHz 18 nm / 33 km - - - 92 ft / 28 m (AMSL)

Popular Alternatives